owner,sensor,date,latitude,longitude,vertical_datum,direction_of_sea_water_velocity,sea_water_speed,upward_sea_water_velocity,qcFlag 
TABS,ioos:station:wmo:42044:1,2007-02-01T00:00:00Z,26.1914,-97.0507,2.0,187.8903446,104.5296805,-99999.0,'11111222,11111222,99999999' 
TABS,ioos:station:wmo:42044:1,2007-02-01T00:30:00Z,26.1914,-97.0507,2.0,186.0149667,101.8206094,-99999.0,'11111222,11111222,99999999' 
TABS,ioos:station:wmo:42044:1,2007-02-01T01:00:00Z,26.1914,-97.0507,2.0,182.6332734,105.9919398,-99999.0,'11111222,11111222,99999999' 
TABS,ioos:station:wmo:42044:1,2007-02-01T01:30:00Z,26.1914,-97.0507,2.0,181.7279215,107.7690164,-99999.0,'11111222,11111222,99999999' 
TABS,ioos:station:wmo:42044:1,2007-02-01T02:00:00Z,26.1914,-97.0507,2.0,180.2504738,102.8509844,-99999.0,'11111222,11111222,99999999' 
TABS,ioos:station:wmo:42044:1,2007-02-01T02:30:00Z,26.1914,-97.0507,2.0,183.985739,107.3195937,-99999.0,'11111222,11111222,99999999' 
TABS,ioos:station:wmo:42044:1,2007-02-01T03:00:00Z,26.1914,-97.0507,2.0,186.4420351,97.32456268,-99999.0,'11111222,11111222,99999999' 
TABS,ioos:station:wmo:42044:1,2007-02-01T03:30:00Z,26.1914,-97.0507,2.0,185.8005123,96.76549643,-99999.0,'11111222,11111222,99999999' 
TABS,ioos:station:wmo:42044:1,2007-02-01T04:00:00Z,26.1914,-97.0507,2.0,188.3291035,97.60961018,-99999.0,'11111222,11111222,99999999' 
TABS,ioos:station:wmo:42044:1,2007-02-01T04:30:00Z,26.1914,-97.0507,2.0,189.1837216,98.8066015,-99999.0,'11111222,11111222,99999999' 
TABS,ioos:station:wmo:42044:1,2007-02-01T05:00:00Z,26.1914,-97.0507,2.0,187.1134578,94.07414629,-99999.0,'11111222,11111222,99999999' 
TABS,ioos:station:wmo:42044:1,2007-02-01T05:30:00Z,26.1914,-97.0507,2.0,183.2731283,97.19858075,-99999.0,'11111222,11111222,99999999' 
TABS,ioos:station:wmo:42044:1,2007-02-01T06:00:00Z,26.1914,-97.0507,2.0,181.6176628,89.25558134,-99999.0,'11111222,11111222,99999999' 
TABS,ioos:station:wmo:42044:1,2007-02-01T06:30:00Z,26.1914,-97.0507,2.0,180.1575717,83.52031669,-99999.0,'11111222,11111222,99999999' 
TABS,ioos:station:wmo:42044:1,2007-02-01T07:00:00Z,26.1914,-97.0507,2.0,178.4351553,79.83976766,-99999.0,'11111222,11111222,99999999' 
TABS,ioos:station:wmo:42044:1,2007-02-01T07:30:00Z,26.1914,-97.0507,2.0,177.8422516,73.31197174,-99999.0,'11111222,11111222,99999999' 
TABS,ioos:station:wmo:42044:1,2007-02-01T08:00:00Z,26.1914,-97.0507,2.0,180.6789087,64.96456342,-99999.0,'11111222,11111222,99999999' 
TABS,ioos:station:wmo:42044:1,2007-02-01T08:30:00Z,26.1914,-97.0507,2.0,177.5452227,60.47548677,-99999.0,'11111222,11111222,99999999' 
TABS,ioos:station:wmo:42044:1,2007-02-01T09:00:00Z,26.1914,-97.0507,2.0,177.5805362,64.43743322,-99999.0,'11111222,11111222,99999999' 
TABS,ioos:station:wmo:42044:1,2007-02-01T09:30:00Z,26.1914,-97.0507,2.0,172.6289627,52.61477834,-99999.0,'11111222,11111222,99999999' 
TABS,ioos:station:wmo:42044:1,2007-02-01T10:00:00Z,26.1914,-97.0507,2.0,178.6967185,58.04501098,-99999.0,'11111222,11111222,99999999' 
TABS,ioos:station:wmo:42044:1,2007-02-01T10:30:00Z,26.1914,-97.0507,2.0,178.1504705,53.91808324,-99999.0,'11111222,11111222,99999999' 
TABS,ioos:station:wmo:42044:1,2007-02-01T11:00:00Z,26.1914,-97.0507,2.0,169.0637977,52.28959744,-99999.0,'11111222,11111222,99999999' 
TABS,ioos:station:wmo:42044:1,2007-02-01T11:30:00Z,26.1914,-97.0507,2.0,165.6488516,47.24422716,-99999.0,'11111222,11111222,99999999' 
TABS,ioos:station:wmo:42044:1,2007-02-01T12:00:00Z,26.1914,-97.0507,2.0,168.4953834,51.99460934,-99999.0,'11111222,11111222,99999999' 
TABS,ioos:station:wmo:42044:1,2007-02-01T12:30:00Z,26.1914,-97.0507,2.0,176.0182136,54.15069713,-99999.0,'11111222,11111222,99999999' 
TABS,ioos:station:wmo:42044:1,2007-02-01T13:00:00Z,26.1914,-97.0507,2.0,177.2422679,56.74570733,-99999.0,'11111222,11111222,99999999' 
TABS,ioos:station:wmo:42044:1,2007-02-01T13:30:00Z,26.1914,-97.0507,2.0,171.2612199,57.52779502,-99999.0,'11111222,11111222,99999999' 
TABS,ioos:station:wmo:42044:1,2007-02-01T14:00:00Z,26.1914,-97.0507,2.0,173.4280705,55.74628956,-99999.0,'11111222,11111222,99999999' 
TABS,ioos:station:wmo:42044:1,2007-02-01T14:30:00Z,26.1914,-97.0507,2.0,179.1368094,65.06738046,-99999.0,'11111222,11111222,99999999' 
TABS,ioos:station:wmo:42044:1,2007-02-01T15:00:00Z,26.1914,-97.0507,2.0,180.7796056,70.53653309,-99999.0,'11111222,11111222,99999999' 
TABS,ioos:station:wmo:42044:1,2007-02-01T15:30:00Z,26.1914,-97.0507,2.0,179.4242667,68.69346548,-99999.0,'11111222,11111222,99999999' 
TABS,ioos:station:wmo:42044:1,2007-02-01T16:00:00Z,26.1914,-97.0507,2.0,181.2531229,74.97793809,-99999.0,'11111222,11111222,99999999' 
TABS,ioos:station:wmo:42044:1,2007-02-01T16:30:00Z,26.1914,-97.0507,2.0,176.3342372,75.70487501,-99999.0,'11111222,11111222,99999999' 
TABS,ioos:station:wmo:42044:1,2007-02-01T17:00:00Z,26.1914,-97.0507,2.0,175.407819,69.57332391,-99999.0,'11111222,11111222,99999999' 
TABS,ioos:station:wmo:42044:1,2007-02-01T17:30:00Z,26.1914,-97.0507,2.0,175.2290694,73.82577125,-99999.0,'11111222,11111222,99999999' 
TABS,ioos:station:wmo:42044:1,2007-02-01T18:00:00Z,26.1914,-97.0507,2.0,173.6302599,75.4457242,-99999.0,'11111222,11111222,99999999' 
TABS,ioos:station:wmo:42044:1,2007-02-01T18:30:00Z,26.1914,-97.0507,2.0,172.3933772,80.30664294,-99999.0,'11111222,11111222,99999999' 
TABS,ioos:station:wmo:42044:1,2007-02-01T19:00:00Z,26.1914,-97.0507,2.0,172.3662512,77.83982336,-99999.0,'11111222,11111222,99999999' 
TABS,ioos:station:wmo:42044:1,2007-02-01T19:30:00Z,26.1914,-97.0507,2.0,172.1916166,97.16083367,-99999.0,'11111222,11111222,99999999' 
TABS,ioos:station:wmo:42044:1,2007-02-01T20:00:00Z,26.1914,-97.0507,2.0,167.6886443,90.23504419,-99999.0,'11111222,11111222,99999999' 
TABS,ioos:station:wmo:42044:1,2007-02-01T20:30:00Z,26.1914,-97.0507,2.0,171.9241896,96.66861176,-99999.0,'11111222,11111222,99999999' 
TABS,ioos:station:wmo:42044:1,2007-02-01T21:00:00Z,26.1914,-97.0507,2.0,172.8416409,105.0487553,-99999.0,'11111222,11111222,99999999' 
TABS,ioos:station:wmo:42044:1,2007-02-01T21:30:00Z,26.1914,-97.0507,2.0,174.8106069,109.0168083,-99999.0,'11111222,11111222,99999999' 
TABS,ioos:station:wmo:42044:1,2007-02-01T22:00:00Z,26.1914,-97.0507,2.0,174.3381858,108.2580958,-99999.0,'11111222,11111222,99999999' 
TABS,ioos:station:wmo:42044:1,2007-02-01T22:30:00Z,26.1914,-97.0507,2.0,174.0048923,114.898359,-99999.0,'11111222,11111222,99999999' 
TABS,ioos:station:wmo:42044:1,2007-02-01T23:00:00Z,26.1914,-97.0507,2.0,173.7335862,112.0494413,-99999.0,'11111222,11111222,99999999' 
TABS,ioos:station:wmo:42044:1,2007-02-01T23:30:00Z,26.1914,-97.0507,2.0,172.811637,111.4055856,-99999.0,'11111222,11111222,99999999' 
TABS,ioos:station:wmo:42044:1,2007-02-02T00:00:00Z,26.1914,-97.0507,2.0,172.6541142,112.3924277,-99999.0,'11111222,11111222,99999999' 
TABS,ioos:station:wmo:42044:1,2007-02-02T01:00:00Z,26.1914,-97.0507,2.0,172.2590971,104.461883,-99999.0,'11111222,11111222,99999999' 
TABS,ioos:station:wmo:42044:1,2007-02-02T02:00:00Z,26.1914,-97.0507,2.0,170.2200221,96.72562897,-99999.0,'11111222,11111222,99999999' 
TABS,ioos:station:wmo:42044:1,2007-02-02T02:30:00Z,26.1914,-97.0507,2.0,170.9660643,89.67229226,-99999.0,'11111222,11111222,99999999' 
TABS,ioos:station:wmo:42044:1,2007-02-02T03:30:00Z,26.1914,-97.0507,2.0,170.216599,96.57441172,-99999.0,'11111222,11111222,99999999' 
TABS,ioos:station:wmo:42044:1,2007-02-02T04:00:00Z,26.1914,-97.0507,2.0,166.418332,93.81330929,-99999.0,'11111222,11111222,99999999' 
TABS,ioos:station:wmo:42044:1,2007-02-02T04:30:00Z,26.1914,-97.0507,2.0,167.7920049,92.73705678,-99999.0,'11111222,11111222,99999999' 
TABS,ioos:station:wmo:42044:1,2007-02-02T05:00:00Z,26.1914,-97.0507,2.0,165.0528149,92.31344539,-99999.0,'11111222,11111222,99999999' 
TABS,ioos:station:wmo:42044:1,2007-02-02T05:30:00Z,26.1914,-97.0507,2.0,164.7761515,87.89438264,-99999.0,'11111222,11111222,99999999' 
TABS,ioos:station:wmo:42044:1,2007-02-02T06:00:00Z,26.1914,-97.0507,2.0,163.6862828,87.2216378,-99999.0,'11111222,11111222,99999999' 
TABS,ioos:station:wmo:42044:1,2007-02-02T06:30:00Z,26.1914,-97.0507,2.0,165.264511,81.30399314,-99999.0,'11111222,11111222,99999999' 
TABS,ioos:station:wmo:42044:1,2007-02-02T07:00:00Z,26.1914,-97.0507,2.0,164.4112805,84.24898872,-99999.0,'11111222,11111222,99999999' 
TABS,ioos:station:wmo:42044:1,2007-02-02T07:30:00Z,26.1914,-97.0507,2.0,168.9442306,70.24360825,-99999.0,'11111222,11111222,99999999' 
TABS,ioos:station:wmo:42044:1,2007-02-02T08:00:00Z,26.1914,-97.0507,2.0,180.7946023,61.27589575,-99999.0,'11111222,11111222,99999999' 
TABS,ioos:station:wmo:42044:1,2007-02-02T08:30:00Z,26.1914,-97.0507,2.0,179.8651575,59.58016448,-99999.0,'11111222,11111222,99999999' 
TABS,ioos:station:wmo:42044:1,2007-02-02T09:00:00Z,26.1914,-97.0507,2.0,181.0553859,55.90948846,-99999.0,'11111222,11111222,99999999' 
TABS,ioos:station:wmo:42044:1,2007-02-02T10:00:00Z,26.1914,-97.0507,2.0,177.3360053,50.56463784,-99999.0,'11111222,11111222,99999999' 
TABS,ioos:station:wmo:42044:1,2007-02-02T10:30:00Z,26.1914,-97.0507,2.0,178.7197931,45.66139398,-99999.0,'11111222,11111222,99999999' 
TABS,ioos:station:wmo:42044:1,2007-02-02T12:00:00Z,26.1914,-97.0507,2.0,174.251402,43.72990396,-99999.0,'11111222,11111222,99999999' 
TABS,ioos:station:wmo:42044:1,2007-02-02T12:30:00Z,26.1914,-97.0507,2.0,182.97697,51.59964438,-99999.0,'11111222,11111222,99999999' 
TABS,ioos:station:wmo:42044:1,2007-02-02T13:00:00Z,26.1914,-97.0507,2.0,175.2528438,42.77672849,-99999.0,'11111222,11111222,99999999' 
TABS,ioos:station:wmo:42044:1,2007-02-02T13:30:00Z,26.1914,-97.0507,2.0,176.0914336,39.61212441,-99999.0,'11111222,11111222,99999999' 
TABS,ioos:station:wmo:42044:1,2007-02-02T14:00:00Z,26.1914,-97.0507,2.0,171.4489185,40.82378963,-99999.0,'11111222,11111222,99999999' 
TABS,ioos:station:wmo:42044:1,2007-02-02T14:30:00Z,26.1914,-97.0507,2.0,169.4603462,46.08753628,-99999.0,'11111222,11111222,99999999' 
TABS,ioos:station:wmo:42044:1,2007-02-02T15:00:00Z,26.1914,-97.0507,2.0,164.9273589,48.14634462,-99999.0,'11111222,11111222,99999999' 
TABS,ioos:station:wmo:42044:1,2007-02-02T15:30:00Z,26.1914,-97.0507,2.0,173.2540171,58.65607044,-99999.0,'11111222,11111222,99999999' 
TABS,ioos:station:wmo:42044:1,2007-02-02T16:00:00Z,26.1914,-97.0507,2.0,181.0078829,53.42826967,-99999.0,'11111222,11111222,99999999' 
TABS,ioos:station:wmo:42044:1,2007-02-02T16:30:00Z,26.1914,-97.0507,2.0,175.7452076,50.00780939,-99999.0,'11111222,11111222,99999999' 
TABS,ioos:station:wmo:42044:1,2007-02-02T17:00:00Z,26.1914,-97.0507,2.0,174.0590547,60.19327039,-99999.0,'11111222,11111222,99999999' 
TABS,ioos:station:wmo:42044:1,2007-02-02T17:30:00Z,26.1914,-97.0507,2.0,178.6500379,57.73601995,-99999.0,'11111222,11111222,99999999' 
TABS,ioos:station:wmo:42044:1,2007-02-02T18:00:00Z,26.1914,-97.0507,2.0,176.2753279,57.42127567,-99999.0,'11111222,11111222,99999999' 
TABS,ioos:station:wmo:42044:1,2007-02-02T18:30:00Z,26.1914,-97.0507,2.0,174.2778416,55.16486291,-99999.0,'11111222,11111222,99999999' 
TABS,ioos:station:wmo:42044:1,2007-02-02T19:00:00Z,26.1914,-97.0507,2.0,175.6028583,49.82664749,-99999.0,'11111222,11111222,99999999' 
TABS,ioos:station:wmo:42044:1,2007-02-02T19:30:00Z,26.1914,-97.0507,2.0,174.9587584,47.68444296,-99999.0,'11111222,11111222,99999999' 
TABS,ioos:station:wmo:42044:1,2007-02-02T20:00:00Z,26.1914,-97.0507,2.0,173.6415797,49.12215386,-99999.0,'11111222,11111222,99999999' 
TABS,ioos:station:wmo:42044:1,2007-02-02T20:30:00Z,26.1914,-97.0507,2.0,173.4391774,46.21262273,-99999.0,'11111222,11111222,99999999' 
TABS,ioos:station:wmo:42044:1,2007-02-02T21:00:00Z,26.1914,-97.0507,2.0,176.8848911,48.95232374,-99999.0,'11111222,11111222,99999999' 
TABS,ioos:station:wmo:42044:1,2007-02-02T21:30:00Z,26.1914,-97.0507,2.0,176.2607275,51.83032703,-99999.0,'11111222,11111222,99999999' 
TABS,ioos:station:wmo:42044:1,2007-02-02T22:00:00Z,26.1914,-97.0507,2.0,175.8332201,50.92459229,-99999.0,'11111222,11111222,99999999' 
TABS,ioos:station:wmo:42044:1,2007-02-02T22:30:00Z,26.1914,-97.0507,2.0,173.8208113,50.63415942,-99999.0,'11111222,11111222,99999999' 
TABS,ioos:station:wmo:42044:1,2007-02-02T23:00:00Z,26.1914,-97.0507,2.0,167.2644144,53.84465897,-99999.0,'11111222,11111222,99999999' 
TABS,ioos:station:wmo:42044:1,2007-02-02T23:30:00Z,26.1914,-97.0507,2.0,168.4885084,53.56749201,-99999.0,'11111222,11111222,99999999' 
TABS,ioos:station:wmo:42044:1,2007-02-03T00:00:00Z,26.1914,-97.0507,2.0,163.3875245,54.28582504,-99999.0,'11111222,11111222,99999999' 
TABS,ioos:station:wmo:42044:1,2007-02-03T00:30:00Z,26.1914,-97.0507,2.0,167.996301,61.40257731,-99999.0,'11111222,11111222,99999999' 
TABS,ioos:station:wmo:42044:1,2007-02-03T01:00:00Z,26.1914,-97.0507,2.0,165.6597004,64.47900278,-99999.0,'11111222,11111222,99999999' 
TABS,ioos:station:wmo:42044:1,2007-02-03T01:30:00Z,26.1914,-97.0507,2.0,164.6898782,64.15682349,-99999.0,'11111222,11111222,99999999' 
TABS,ioos:station:wmo:42044:1,2007-02-03T02:00:00Z,26.1914,-97.0507,2.0,164.9987213,67.26224052,-99999.0,'11111222,11111222,99999999' 
TABS,ioos:station:wmo:42044:1,2007-02-03T02:30:00Z,26.1914,-97.0507,2.0,165.5119267,70.15075837,-99999.0,'11111222,11111222,99999999' 
TABS,ioos:station:wmo:42044:1,2007-02-03T03:00:00Z,26.1914,-97.0507,2.0,163.4995497,74.74825617,-99999.0,'11111222,11111222,99999999' 
TABS,ioos:station:wmo:42044:1,2007-02-03T03:30:00Z,26.1914,-97.0507,2.0,163.1408838,60.82412104,-99999.0,'11111222,11111222,99999999' 
TABS,ioos:station:wmo:42044:1,2007-02-03T04:00:00Z,26.1914,-97.0507,2.0,162.19521,65.53900823,-99999.0,'11111222,11111222,99999999' 
TABS,ioos:station:wmo:42044:1,2007-02-03T04:30:00Z,26.1914,-97.0507,2.0,174.7579819,55.82345475,-99999.0,'11111222,11111222,99999999' 
TABS,ioos:station:wmo:42044:1,2007-02-03T05:00:00Z,26.1914,-97.0507,2.0,180.2299793,52.27042185,-99999.0,'11111222,11111222,99999999' 
TABS,ioos:station:wmo:42044:1,2007-02-03T05:30:00Z,26.1914,-97.0507,2.0,181.7500072,51.40398136,-99999.0,'11111222,11111222,99999999' 
TABS,ioos:station:wmo:42044:1,2007-02-03T06:00:00Z,26.1914,-97.0507,2.0,183.8060707,48.9579922,-99999.0,'11111222,11111222,99999999' 
TABS,ioos:station:wmo:42044:1,2007-02-03T06:30:00Z,26.1914,-97.0507,2.0,184.4647292,44.44488385,-99999.0,'11111222,11111222,99999999' 
TABS,ioos:station:wmo:42044:1,2007-02-03T07:00:00Z,26.1914,-97.0507,2.0,184.061236,50.68729328,-99999.0,'11111222,11111222,99999999' 
TABS,ioos:station:wmo:42044:1,2007-02-03T07:30:00Z,26.1914,-97.0507,2.0,182.8527601,57.66146894,-99999.0,'11111222,11111222,99999999' 
TABS,ioos:station:wmo:42044:1,2007-02-03T08:00:00Z,26.1914,-97.0507,2.0,181.7271815,56.39562838,-99999.0,'11111222,11111222,99999999' 
TABS,ioos:station:wmo:42044:1,2007-02-03T08:30:00Z,26.1914,-97.0507,2.0,182.248891,70.07398162,-99999.0,'11111222,11111222,99999999' 
TABS,ioos:station:wmo:42044:1,2007-02-03T09:00:00Z,26.1914,-97.0507,2.0,185.5978174,68.88854767,-99999.0,'11111222,11111222,99999999' 
TABS,ioos:station:wmo:42044:1,2007-02-03T09:30:00Z,26.1914,-97.0507,2.0,184.2946598,69.83611172,-99999.0,'11111222,11111222,99999999' 
TABS,ioos:station:wmo:42044:1,2007-02-03T10:00:00Z,26.1914,-97.0507,2.0,183.6874925,70.27550996,-99999.0,'11111222,11111222,99999999' 
TABS,ioos:station:wmo:42044:1,2007-02-03T10:30:00Z,26.1914,-97.0507,2.0,188.0326551,85.01415647,-99999.0,'11111222,11111222,99999999' 
TABS,ioos:station:wmo:42044:1,2007-02-03T11:00:00Z,26.1914,-97.0507,2.0,191.0019409,91.64443082,-99999.0,'11111222,11111222,99999999' 
TABS,ioos:station:wmo:42044:1,2007-02-03T12:00:00Z,26.1914,-97.0507,2.0,174.9175344,76.31001048,-99999.0,'11111222,11111222,99999999' 
TABS,ioos:station:wmo:42044:1,2007-02-03T12:30:00Z,26.1914,-97.0507,2.0,181.3600781,78.77219941,-99999.0,'11111222,11111222,99999999' 
TABS,ioos:station:wmo:42044:1,2007-02-03T13:00:00Z,26.1914,-97.0507,2.0,183.3666636,79.85783931,-99999.0,'11111222,11111222,99999999' 
TABS,ioos:station:wmo:42044:1,2007-02-03T13:30:00Z,26.1914,-97.0507,2.0,184.0172059,80.21711039,-99999.0,'11111222,11111222,99999999' 
TABS,ioos:station:wmo:42044:1,2007-02-03T14:00:00Z,26.1914,-97.0507,2.0,181.5354326,70.52532949,-99999.0,'11111222,11111222,99999999' 
TABS,ioos:station:wmo:42044:1,2007-02-03T14:30:00Z,26.1914,-97.0507,2.0,186.8211429,62.72400577,-99999.0,'11111222,11111222,99999999' 
TABS,ioos:station:wmo:42044:1,2007-02-03T15:00:00Z,26.1914,-97.0507,2.0,185.0303885,62.38028935,-99999.0,'11111222,11111222,99999999' 
TABS,ioos:station:wmo:42044:1,2007-02-03T15:30:00Z,26.1914,-97.0507,2.0,183.0968934,55.71137227,-99999.0,'11111222,11111222,99999999' 
TABS,ioos:station:wmo:42044:1,2007-02-03T16:00:00Z,26.1914,-97.0507,2.0,181.1460322,47.48950305,-99999.0,'11111222,11111222,99999999' 
TABS,ioos:station:wmo:42044:1,2007-02-03T16:30:00Z,26.1914,-97.0507,2.0,186.8641166,48.5278518,-99999.0,'11111222,11111222,99999999' 
TABS,ioos:station:wmo:42044:1,2007-02-03T17:00:00Z,26.1914,-97.0507,2.0,181.1427322,36.59728132,-99999.0,'11111222,11111222,99999999' 
TABS,ioos:station:wmo:42044:1,2007-02-03T17:30:00Z,26.1914,-97.0507,2.0,184.5426287,37.49780394,-99999.0,'11111222,11111222,99999999' 
TABS,ioos:station:wmo:42044:1,2007-02-03T18:00:00Z,26.1914,-97.0507,2.0,181.7022888,44.42961287,-99999.0,'11111222,11111222,99999999' 
TABS,ioos:station:wmo:42044:1,2007-02-03T18:30:00Z,26.1914,-97.0507,2.0,175.6658226,46.84395052,-99999.0,'11111222,11111222,99999999' 
TABS,ioos:station:wmo:42044:1,2007-02-03T19:00:00Z,26.1914,-97.0507,2.0,178.1304121,47.51528807,-99999.0,'11111222,11111222,99999999' 
TABS,ioos:station:wmo:42044:1,2007-02-03T19:30:00Z,26.1914,-97.0507,2.0,176.6015302,39.13882088,-99999.0,'11111222,11111222,99999999' 
TABS,ioos:station:wmo:42044:1,2007-02-03T20:00:00Z,26.1914,-97.0507,2.0,176.9320686,41.10891023,-99999.0,'11111222,11111222,99999999' 
TABS,ioos:station:wmo:42044:1,2007-02-03T20:30:00Z,26.1914,-97.0507,2.0,186.5684112,54.28636109,-99999.0,'11111222,11111222,99999999' 
TABS,ioos:station:wmo:42044:1,2007-02-03T21:00:00Z,26.1914,-97.0507,2.0,182.9705092,54.41312342,-99999.0,'11111222,11111222,99999999' 
TABS,ioos:station:wmo:42044:1,2007-02-03T21:30:00Z,26.1914,-97.0507,2.0,185.7295553,62.40177081,-99999.0,'11111222,11111222,99999999' 
TABS,ioos:station:wmo:42044:1,2007-02-03T22:00:00Z,26.1914,-97.0507,2.0,183.7349392,62.78336245,-99999.0,'11111222,11111222,99999999' 
TABS,ioos:station:wmo:42044:1,2007-02-03T22:30:00Z,26.1914,-97.0507,2.0,179.1786831,58.61601914,-99999.0,'11111222,11111222,99999999' 
TABS,ioos:station:wmo:42044:1,2007-02-03T23:00:00Z,26.1914,-97.0507,2.0,189.6242668,66.21195738,-99999.0,'11111222,11111222,99999999' 
TABS,ioos:station:wmo:42044:1,2007-02-03T23:30:00Z,26.1914,-97.0507,2.0,185.3183156,66.45610958,-99999.0,'11111222,11111222,99999999' 
TABS,ioos:station:wmo:42044:1,2007-02-04T00:00:00Z,26.1914,-97.0507,2.0,183.7018401,65.66702749,-99999.0,'11111222,11111222,99999999' 
TABS,ioos:station:wmo:42044:1,2007-02-04T00:30:00Z,26.1914,-97.0507,2.0,187.1301097,66.78650313,-99999.0,'11111222,11111222,99999999' 
TABS,ioos:station:wmo:42044:1,2007-02-04T01:00:00Z,26.1914,-97.0507,2.0,187.3100718,60.98571718,-99999.0,'11111222,11111222,99999999' 
TABS,ioos:station:wmo:42044:1,2007-02-04T01:30:00Z,26.1914,-97.0507,2.0,184.7863567,60.15981134,-99999.0,'11111222,11111222,99999999' 
TABS,ioos:station:wmo:42044:1,2007-02-04T02:00:00Z,26.1914,-97.0507,2.0,181.6082929,57.71274123,-99999.0,'11111222,11111222,99999999' 
TABS,ioos:station:wmo:42044:1,2007-02-04T02:30:00Z,26.1914,-97.0507,2.0,182.297209,57.12591794,-99999.0,'11111222,11111222,99999999' 
TABS,ioos:station:wmo:42044:1,2007-02-04T03:00:00Z,26.1914,-97.0507,2.0,177.3613959,57.35079511,-99999.0,'11111222,11111222,99999999' 
TABS,ioos:station:wmo:42044:1,2007-02-04T03:30:00Z,26.1914,-97.0507,2.0,175.4634877,55.88506509,-99999.0,'11111222,11111222,99999999' 
TABS,ioos:station:wmo:42044:1,2007-02-04T04:00:00Z,26.1914,-97.0507,2.0,177.8578023,58.86112809,-99999.0,'11111222,11111222,99999999' 
TABS,ioos:station:wmo:42044:1,2007-02-04T04:30:00Z,26.1914,-97.0507,2.0,177.2773426,63.58176232,-99999.0,'11111222,11111222,99999999' 
TABS,ioos:station:wmo:42044:1,2007-02-04T05:00:00Z,26.1914,-97.0507,2.0,182.648086,68.82350543,-99999.0,'11111222,11111222,99999999' 
TABS,ioos:station:wmo:42044:1,2007-02-04T05:30:00Z,26.1914,-97.0507,2.0,179.8793846,66.6201471,-99999.0,'11111222,11111222,99999999' 
TABS,ioos:station:wmo:42044:1,2007-02-04T06:00:00Z,26.1914,-97.0507,2.0,179.6901768,68.4709997,-99999.0,'11111222,11111222,99999999' 
TABS,ioos:station:wmo:42044:1,2007-02-04T06:30:00Z,26.1914,-97.0507,2.0,181.8034102,73.07620406,-99999.0,'11111222,11111222,99999999' 
TABS,ioos:station:wmo:42044:1,2007-02-04T07:00:00Z,26.1914,-97.0507,2.0,178.2670875,69.45175592,-99999.0,'11111222,11111222,99999999' 
TABS,ioos:station:wmo:42044:1,2007-02-04T07:30:00Z,26.1914,-97.0507,2.0,175.1874463,70.32792049,-99999.0,'11111222,11111222,99999999' 
TABS,ioos:station:wmo:42044:1,2007-02-04T08:00:00Z,26.1914,-97.0507,2.0,176.7033922,72.51998966,-99999.0,'11111222,11111222,99999999' 
TABS,ioos:station:wmo:42044:1,2007-02-04T08:30:00Z,26.1914,-97.0507,2.0,173.3875093,77.89817264,-99999.0,'11111222,11111222,99999999' 
TABS,ioos:station:wmo:42044:1,2007-02-04T09:00:00Z,26.1914,-97.0507,2.0,174.5468549,79.66049774,-99999.0,'11111222,11111222,99999999' 
TABS,ioos:station:wmo:42044:1,2007-02-04T09:30:00Z,26.1914,-97.0507,2.0,175.6978352,85.85188233,-99999.0,'11111222,11111222,99999999' 
TABS,ioos:station:wmo:42044:1,2007-02-04T10:00:00Z,26.1914,-97.0507,2.0,173.0100958,87.1879791,-99999.0,'11111222,11111222,99999999' 
TABS,ioos:station:wmo:42044:1,2007-02-04T10:30:00Z,26.1914,-97.0507,2.0,173.3264122,90.00984168,-99999.0,'11111222,11111222,99999999' 
TABS,ioos:station:wmo:42044:1,2007-02-04T11:00:00Z,26.1914,-97.0507,2.0,174.6334472,91.42069186,-99999.0,'11111222,11111222,99999999' 
TABS,ioos:station:wmo:42044:1,2007-02-04T11:30:00Z,26.1914,-97.0507,2.0,175.2674151,89.81619119,-99999.0,'11111222,11111222,99999999' 
TABS,ioos:station:wmo:42044:1,2007-02-04T12:00:00Z,26.1914,-97.0507,2.0,174.6365014,90.61671645,-99999.0,'11111222,11111222,99999999' 
TABS,ioos:station:wmo:42044:1,2007-02-04T12:30:00Z,26.1914,-97.0507,2.0,175.8668336,88.80092849,-99999.0,'11111222,11111222,99999999' 
TABS,ioos:station:wmo:42044:1,2007-02-04T13:00:00Z,26.1914,-97.0507,2.0,175.3178659,87.3514768,-99999.0,'11111222,11111222,99999999' 
TABS,ioos:station:wmo:42044:1,2007-02-04T13:30:00Z,26.1914,-97.0507,2.0,173.8942271,81.9850523,-99999.0,'11111222,11111222,99999999' 
TABS,ioos:station:wmo:42044:1,2007-02-04T14:00:00Z,26.1914,-97.0507,2.0,173.9708805,81.3097239,-99999.0,'11111222,11111222,99999999' 
TABS,ioos:station:wmo:42044:1,2007-02-04T14:30:00Z,26.1914,-97.0507,2.0,176.4692251,82.00564005,-99999.0,'11111222,11111222,99999999' 
TABS,ioos:station:wmo:42044:1,2007-02-04T15:00:00Z,26.1914,-97.0507,2.0,177.6178278,83.97255564,-99999.0,'11111222,11111222,99999999' 
TABS,ioos:station:wmo:42044:1,2007-02-04T15:30:00Z,26.1914,-97.0507,2.0,173.852969,83.77162407,-99999.0,'11111222,11111222,99999999' 
TABS,ioos:station:wmo:42044:1,2007-02-04T16:30:00Z,26.1914,-97.0507,2.0,174.6106125,88.15969204,-99999.0,'11111222,11111222,99999999' 
TABS,ioos:station:wmo:42044:1,2007-02-04T17:00:00Z,26.1914,-97.0507,2.0,173.8184552,84.04865317,-99999.0,'11111222,11111222,99999999' 
TABS,ioos:station:wmo:42044:1,2007-02-04T17:30:00Z,26.1914,-97.0507,2.0,174.3560839,84.39911196,-99999.0,'11111222,11111222,99999999' 
TABS,ioos:station:wmo:42044:1,2007-02-04T18:00:00Z,26.1914,-97.0507,2.0,171.5949561,82.57687933,-99999.0,'11111222,11111222,99999999' 
TABS,ioos:station:wmo:42044:1,2007-02-04T18:30:00Z,26.1914,-97.0507,2.0,171.2051913,84.50352951,-99999.0,'11111222,11111222,99999999' 
TABS,ioos:station:wmo:42044:1,2007-02-04T19:00:00Z,26.1914,-97.0507,2.0,170.5363241,80.83005011,-99999.0,'11111222,11111222,99999999' 
TABS,ioos:station:wmo:42044:1,2007-02-04T19:30:00Z,26.1914,-97.0507,2.0,169.8995493,78.40509295,-99999.0,'11111222,11111222,99999999' 
TABS,ioos:station:wmo:42044:1,2007-02-04T20:00:00Z,26.1914,-97.0507,2.0,167.9125425,80.22868876,-99999.0,'11111222,11111222,99999999' 